,,Stat6,,Stat2,,Stat8,,Stat9,,Stat10,,Wind1,,Wind1,
time,status,PA1M_AVG,status,PR1M_SUM,status,RH1M_AVG,status,SR1M_AVG,status,TA1M_AVG,status,W1dAve1m,status,W1sAve1m,
2005-06-25, 10:18:00,VALID,917.516,VALID,0,VALID,81.1212,VALID,93.51,VALID,24.0043,VALID,282,VALID,0.0403343,
2005-06-25, 10:19:00,VALID,917.507,VALID,0,VALID,80.9643,VALID,91.4588,VALID,24.0278,VALID,282,VALID,0.0466933,
2005-06-25, 10:20:00,VALID,917.514,VALID,0,VALID,80.5879,VALID,88.3343,VALID,24.0633,VALID,282,VALID,0.0528706,
2005-06-25, 10:21:00,VALID,917.509,VALID,0,VALID,80.3743,VALID,84.3777,VALID,24.0827,VALID,282,VALID,0.188565,
2005-06-25, 10:22:00,VALID,917.523,VALID,0,VALID,80.6871,VALID,80.8288,VALID,24.1089,VALID,282,VALID,0.0546875,
2005-06-25, 10:23:00,VALID,917.55,VALID,0,VALID,80.4036,VALID,77.4496,VALID,24.0639,VALID,282,VALID,0.0807292,
2005-06-25, 10:24:00,VALID,917.559,VALID,0,VALID,80.682,VALID,74.376,VALID,24.0472,VALID,283,VALID,0.206174,
2005-06-25, 10:25:00,VALID,917.568,VALID,0,VALID,81.2682,VALID,71.5572,VALID,24.0707,VALID,319,VALID,0.510356,
2005-06-25, 10:26:00,VALID,917.582,VALID,0,VALID,81.8761,VALID,69.2309,VALID,24.0675,VALID,359,VALID,0.427202,
2005-06-25, 10:27:00,VALID,917.586,VALID,0,VALID,81.9714,VALID,66.7347,VALID,24.0067,VALID,11,VALID,0.612233,
2005-06-25, 10:28:00,VALID,917.598,VALID,0,VALID,82.4903,VALID,64.2385,VALID,23.9511,VALID,20,VALID,0.542383,
2005-06-25, 10:29:00,VALID,917.605,VALID,0,VALID,82.2639,VALID,61.9461,VALID,23.9156,VALID,10,VALID,0.224609,
2005-06-25, 10:30:00,VALID,917.602,VALID,0,VALID,81.8532,VALID,59.5688,VALID,23.9,VALID,9,VALID,0.270579,
2005-06-25, 10:31:00,VALID,917.592,VALID,0,VALID,82.2245,VALID,57.616,VALID,23.8959,VALID,9,VALID,0.243304,
2005-06-25, 10:32:00,VALID,917.596,VALID,0,VALID,82.1368,VALID,56.3424,VALID,23.8868,VALID,9,VALID,0.0630451,
2005-06-25, 10:33:00,VALID,917.594,VALID,0,VALID,82.3415,VALID,55.3915,VALID,23.8642,VALID,9,VALID,0.257813,
2005-06-25, 10:34:00,VALID,917.599,VALID,0,VALID,83.0231,VALID,54.3047,VALID,23.8419,VALID,9,VALID,0.316679,
2005-06-25, 10:35:00,VALID,917.61,VALID,0,VALID,82.9023,VALID,53.4047,VALID,23.806,VALID,9,VALID,0.0428779,
2005-06-25, 10:36:00,VALID,917.621,VALID,0,VALID,82.6327,VALID,52.9632,VALID,23.7314,VALID,9,VALID,0.0166667,
2005-06-25, 10:37:00,VALID,917.64,VALID,0,VALID,82.7458,VALID,52.5727,VALID,23.7091,VALID,360,VALID,0.241655,
2005-06-25, 10:38:00,VALID,917.646,VALID,0,VALID,82.6835,VALID,52.0972,VALID,23.693,VALID,356,VALID,0.11843,
2005-06-25, 10:39:00,VALID,917.661,VALID,0,VALID,83.4071,VALID,51.418,VALID,23.6868,VALID,9,VALID,0.728871,
2005-06-25, 10:40:00,VALID,917.688,VALID,0,VALID,84.1739,VALID,50.45,VALID,23.6066,VALID,21,VALID,0.781432,
2005-06-25, 10:41:00,VALID,917.717,VALID,0,VALID,84.6698,VALID,49.4482,VALID,23.5226,VALID,13,VALID,0.694767,
2005-06-25, 10:42:00,VALID,917.734,VALID,0,VALID,85.0716,VALID,48.1407,VALID,23.4712,VALID,28,VALID,1.17054,
2005-06-25, 10:43:00,VALID,917.76,VALID,0,VALID,85.0767,VALID,46.7143,VALID,23.3996,VALID,16,VALID,1.08947,
2005-06-25, 10:44:00,VALID,917.781,VALID,0,VALID,85.4569,VALID,45.135,VALID,23.3608,VALID,24,VALID,1.42839,
2005-06-25, 10:45:00,VALID,917.799,VALID,0,VALID,85.0856,VALID,43.3351,VALID,23.3355,VALID,19,VALID,1.0538,
2005-06-25, 10:46:00,VALID,917.81,VALID,0,VALID,85.2331,VALID,41.5861,VALID,23.2832,VALID,9,VALID,0.947461,
2005-06-25, 10:47:00,VALID,917.821,VALID,0,VALID,85.2255,VALID,39.854,VALID,23.2451,VALID,10,VALID,0.920573,
2005-06-25, 10:48:00,VALID,917.825,VALID,0,VALID,85.3895,VALID,38.2408,VALID,23.1805,VALID,28,VALID,1.11181,
2005-06-25, 10:49:00,VALID,917.849,VALID,0,VALID,85.6782,VALID,36.8314,VALID,23.1473,VALID,23,VALID,1.20273,
2005-06-25, 10:50:00,VALID,917.843,VALID,0,VALID,85.6616,VALID,35.456,VALID,23.1408,VALID,18,VALID,0.975109,
2005-06-25, 10:51:00,VALID,917.855,VALID,0,VALID,85.8842,VALID,33.8937,VALID,23.1247,VALID,16,VALID,0.726963,
2005-06-25, 10:52:00,VALID,917.85,VALID,0,VALID,85.8676,VALID,32.2296,VALID,23.1091,VALID,14,VALID,0.566315,
2005-06-25, 10:53:00,VALID,917.86,VALID,0,VALID,86.0825,VALID,30.5655,VALID,23.0962,VALID,12,VALID,0.491122,
2005-06-25, 10:54:00,VALID,917.873,VALID,0,VALID,86.2288,VALID,28.9693,VALID,23.1158,VALID,15,VALID,0.46824,
2005-06-25, 10:55:00,VALID,917.871,VALID,0,VALID,86.2707,VALID,27.5599,VALID,23.0985,VALID,16,VALID,1.0181,
2005-06-25, 10:56:00,VALID,917.87,VALID,0,VALID,86.3992,VALID,26.3882,VALID,23.0768,VALID,15,VALID,0.556726,
2005-06-25, 10:57:00,VALID,917.864,VALID,0,VALID,86.4628,VALID,25.3524,VALID,23.0186,VALID,20,VALID,0.706101,
2005-06-25, 10:58:00,VALID,917.87,VALID,0,VALID,86.9867,VALID,24.4184,VALID,22.9608,VALID,359,VALID,0.824033,
2005-06-25, 10:59:00,VALID,917.874,VALID,0,VALID,87.4381,VALID,23.8071,VALID,22.9032,VALID,12,VALID,0.50218,
2005-06-25, 11:00:00,VALID,917.871,VALID,0,VALID,87.7929,VALID,23.2128,VALID,22.8606,VALID,21,VALID,0.913281,
2005-06-25, 11:01:00,VALID,917.867,VALID,0,VALID,87.9569,VALID,22.3298,VALID,22.8586,VALID,20,VALID,1.08185,
2005-06-25, 11:02:00,VALID,917.874,VALID,0,VALID,88.1985,VALID,21.3109,VALID,22.8192,VALID,17,VALID,0.944922,
2005-06-25, 11:03:00,VALID,917.906,VALID,0,VALID,88.4681,VALID,20.377,VALID,22.7805,VALID,19,VALID,1.29802,
2005-06-25, 11:04:00,VALID,917.916,VALID,0,VALID,88.6881,VALID,19.3581,VALID,22.7388,VALID,17,VALID,1.17262,
2005-06-25, 11:05:00,VALID,917.921,VALID,0,VALID,89.0288,VALID,18.3393,VALID,22.6677,VALID,11,VALID,1.99785,
2005-06-25, 11:06:00,VALID,917.958,VALID,0,VALID,89.5515,VALID,17.3374,VALID,22.5999,VALID,19,VALID,1.08027,
2005-06-25, 11:07:00,VALID,917.982,VALID,0,VALID,89.8261,VALID,16.3016,VALID,22.5514,VALID,12,VALID,0.931021,
2005-06-25, 11:08:00,VALID,917.997,VALID,0,VALID,89.9622,VALID,15.0111,VALID,22.5129,VALID,13,VALID,0.844815,
2005-06-25, 11:09:00,VALID,918,VALID,0,VALID,89.9787,VALID,13.296,VALID,22.4607,VALID,8,VALID,1.15732,
2005-06-25, 11:10:00,VALID,918.023,VALID,0,VALID,90.364,VALID,11.6488,VALID,22.4149,VALID,4,VALID,1.35004,
2005-06-25, 11:11:00,VALID,918.009,VALID,0,VALID,90.3933,VALID,10.0187,VALID,22.3078,VALID,349,VALID,1.75363,
2005-06-25, 11:12:00,VALID,918.026,VALID,0,VALID,90.9108,VALID,8.54136,VALID,22.2505,VALID,21,VALID,1.02089,
2005-06-25, 11:13:00,VALID,918.024,VALID,0,VALID,91.0749,VALID,7.25081,VALID,22.2208,VALID,16,VALID,0.980923,
2005-06-25, 11:14:00,VALID,918.028,VALID,0,VALID,91.1016,VALID,6.1131,VALID,22.202,VALID,18,VALID,1.02251,
2005-06-25, 11:15:00,VALID,918.03,VALID,0,VALID,90.9375,VALID,5.07727,VALID,22.1797,VALID,356,VALID,1.01772,
2005-06-25, 11:16:00,VALID,918.04,VALID,0,VALID,90.5662,VALID,4.22823,VALID,22.1491,VALID,284,VALID,1.24551,
2005-06-25, 11:17:00,VALID,918.055,VALID,0,VALID,90.7684,VALID,3.53201,VALID,22.1453,VALID,34,VALID,0.786458,
2005-06-25, 11:18:00,VALID,918.073,VALID,0,VALID,90.6323,VALID,2.97165,VALID,22.1321,VALID,11,VALID,1.09184,
2005-06-25, 11:19:00,VALID,918.09,VALID,0,VALID,90.6349,VALID,2.54712,VALID,22.0742,VALID,20,VALID,1.41495,
2005-06-25, 11:20:00,VALID,918.091,VALID,0,VALID,90.9146,VALID,2.34335,VALID,22.049,VALID,17,VALID,1.12373,
2005-06-25, 11:21:00,VALID,918.107,VALID,0,VALID,91.1944,VALID,2.22449,VALID,22.004,VALID,23,VALID,1.33249,
2005-06-25, 11:22:00,VALID,918.114,VALID,0,VALID,91.2503,VALID,2.05468,VALID,21.9844,VALID,25,VALID,0.953125,
2005-06-25, 11:23:00,VALID,918.12,VALID,0,VALID,91.2592,VALID,1.88487,VALID,21.9785,VALID,22,VALID,1.63072,
2005-06-25, 11:24:00,VALID,918.137,VALID,0,VALID,91.3432,VALID,1.71506,VALID,21.9685,VALID,30,VALID,0.850291,
2005-06-25, 11:25:00,VALID,918.146,VALID,0,VALID,90.9604,VALID,1.63016,VALID,21.9553,VALID,10,VALID,1.03634,
2005-06-25, 11:26:00,VALID,918.146,VALID,0,VALID,90.5929,VALID,1.49431,VALID,21.9235,VALID,21,VALID,1.14063,
2005-06-25, 11:27:00,VALID,918.154,VALID,0,VALID,90.6972,VALID,1.42639,VALID,21.9004,VALID,17,VALID,1.23388,
2005-06-25, 11:28:00,VALID,918.159,VALID,0,VALID,90.7798,VALID,1.37545,VALID,21.8948,VALID,350,VALID,0.615371,
2005-06-25, 11:29:00,VALID,918.168,VALID,0,VALID,90.9185,VALID,1.29054,VALID,21.8651,VALID,21,VALID,0.409884,
2005-06-25, 11:30:00,VALID,918.152,VALID,0,VALID,90.9668,VALID,1.1547,VALID,21.8638,VALID,17,VALID,0.846657,
2005-06-25, 11:31:00,VALID,918.146,VALID,0,VALID,91.1384,VALID,1.01885,VALID,21.8409,VALID,8,VALID,0.906068,
2005-06-25, 11:32:00,VALID,918.142,VALID,0,VALID,91.3127,VALID,0.866022,VALID,21.8221,VALID,23,VALID,0.86756,
2005-06-25, 11:33:00,VALID,918.129,VALID,0,VALID,91.4398,VALID,0.662252,VALID,21.8091,VALID,12,VALID,0.532552,
2005-06-25, 11:34:00,VALID,918.129,VALID,0,VALID,91.4614,VALID,0.543387,VALID,21.81,VALID,10,VALID,0.617882,
2005-06-25, 11:35:00,VALID,918.134,VALID,0,VALID,91.1766,VALID,0.475463,VALID,21.7701,VALID,353,VALID,0.989169,
2005-06-25, 11:36:00,VALID,918.138,VALID,0,VALID,90.968,VALID,0.424521,VALID,21.7254,VALID,337,VALID,1.35975,
2005-06-25, 11:37:00,VALID,918.159,VALID,0,VALID,91.1651,VALID,0.322636,VALID,21.6705,VALID,327,VALID,0.385691,
2005-06-25, 11:38:00,VALID,918.179,VALID,0,VALID,91.3432,VALID,0.254712,VALID,21.6646,VALID,338,VALID,0.0262784,
2005-06-25, 11:39:00,VALID,918.197,VALID,0,VALID,91.4118,VALID,0.20377,VALID,21.6684,VALID,360,VALID,0.455128,
2005-06-25, 11:40:00,VALID,918.212,VALID,0,VALID,91.6267,VALID,0.152827,VALID,21.6418,VALID,18,VALID,1.10067,
2005-06-25, 11:41:00,VALID,918.211,VALID,0,VALID,91.787,VALID,0.101885,VALID,21.613,VALID,27,VALID,1.12517,
2005-06-25, 11:42:00,VALID,918.231,VALID,0,VALID,91.923,VALID,0.101885,VALID,21.5904,VALID,20,VALID,0.468555,
2005-06-25, 11:43:00,VALID,918.239,VALID,0,VALID,92.0782,VALID,0.101885,VALID,21.578,VALID,16,VALID,0.615663,
2005-06-25, 11:44:00,VALID,918.248,VALID,0,VALID,92.0871,VALID,0.0849042,VALID,21.5583,VALID,19,VALID,0.762005,
2005-06-25, 11:45:00,VALID,918.252,VALID,0,VALID,92.2625,VALID,0.0509425,VALID,21.5298,VALID,23,VALID,0.746271,
2005-06-25, 11:46:00,VALID,918.26,VALID,0,VALID,92.391,VALID,0.0509425,VALID,21.4999,VALID,20,VALID,0.499112,
2005-06-25, 11:47:00,VALID,918.257,VALID,0,VALID,92.4062,VALID,0.0339617,VALID,21.5037,VALID,20,VALID,0.317935,
2005-06-25, 11:48:00,VALID,918.299,VALID,0,VALID,92.3592,VALID,0.0509425,VALID,21.5045,VALID,13,VALID,0.564174,
2005-06-25, 11:49:00,VALID,918.301,VALID,0,VALID,92.424,VALID,0.0169808,VALID,21.4749,VALID,17,VALID,0.735156,
2005-06-25, 11:50:00,VALID,918.305,VALID,0,VALID,92.3414,VALID,0.0339617,VALID,21.4461,VALID,12,VALID,0.797053,
2005-06-25, 11:51:00,VALID,918.313,VALID,0,VALID,92.391,VALID,0,VALID,21.4335,VALID,10,VALID,0.965298,
2005-06-25, 11:52:00,VALID,918.312,VALID,0,VALID,92.3439,VALID,0,VALID,21.43,VALID,11,VALID,1.02474,
2005-06-25, 11:53:00,VALID,918.318,VALID,0,VALID,92.3287,VALID,0,VALID,21.4327,VALID,7,VALID,0.889323,
2005-06-25, 11:54:00,VALID,918.323,VALID,0,VALID,92.2384,VALID,0.0339617,VALID,21.4265,VALID,10,VALID,0.940387,
2005-06-25, 11:55:00,VALID,918.333,VALID,0,VALID,92.2918,VALID,0.0169808,VALID,21.4173,VALID,351,VALID,0.838986,
2005-06-25, 11:56:00,VALID,918.352,VALID,0,VALID,92.3465,VALID,0.0169808,VALID,21.4074,VALID,350,VALID,0.775586,
2005-06-25, 11:57:00,VALID,918.347,VALID,0,VALID,92.405,VALID,0,VALID,21.4144,VALID,31,VALID,0.800781,
2005-06-25, 11:58:00,VALID,918.353,VALID,0,VALID,92.3261,VALID,0,VALID,21.4176,VALID,19,VALID,0.843564,
2005-06-25, 11:59:00,VALID,918.351,VALID,0,VALID,92.1875,VALID,0,VALID,21.4176,VALID,16,VALID,1.22523,
2005-06-25, 12:00:00,VALID,918.37,VALID,0,VALID,92.0883,VALID,0.0339617,VALID,21.4084,VALID,4,VALID,1.00746,
2005-06-25, 12:01:00,VALID,918.38,VALID,0,VALID,92.2435,VALID,0.0169808,VALID,21.3848,VALID,2,VALID,0.64375,
2005-06-25, 12:02:00,VALID,918.374,VALID,0,VALID,92.3058,VALID,0.0169808,VALID,21.395,VALID,355,VALID,1.01791,
2005-06-25, 12:03:00,VALID,918.359,VALID,0,VALID,92.129,VALID,0,VALID,21.3885,VALID,14,VALID,1.16624,
2005-06-25, 12:04:00,VALID,918.349,VALID,0,VALID,92.1926,VALID,-0.0169808,VALID,21.3751,VALID,25,VALID,1.44494,
2005-06-25, 12:05:00,VALID,918.348,VALID,0,VALID,92.2702,VALID,0,VALID,21.3718,VALID,28,VALID,0.620028,
2005-06-25, 12:06:00,VALID,918.334,VALID,0,VALID,92.2918,VALID,0.0169808,VALID,21.3753,VALID,23,VALID,0.418341,
2005-06-25, 12:07:00,VALID,918.322,VALID,0,VALID,92.3439,VALID,0,VALID,21.3624,VALID,346,VALID,0.431504,
2005-06-25, 12:08:00,VALID,918.298,VALID,0,VALID,92.3681,VALID,0.0339617,VALID,21.3299,VALID,55,VALID,0.935785,
2005-06-25, 12:09:00,VALID,918.299,VALID,0,VALID,92.513,VALID,0.0169808,VALID,21.3326,VALID,25,VALID,0.915698,
2005-06-25, 12:10:00,VALID,918.279,VALID,0,VALID,92.4914,VALID,0.0339617,VALID,21.3492,VALID,24,VALID,0.78311,
2005-06-25, 12:11:00,VALID,918.276,VALID,0,VALID,92.4685,VALID,0,VALID,21.3527,VALID,25,VALID,0.742551,
2005-06-25, 12:12:00,VALID,918.277,VALID,0,VALID,92.4355,VALID,-0.0169808,VALID,21.3632,VALID,18,VALID,0.760352,
2005-06-25, 12:13:00,VALID,918.292,VALID,0,VALID,92.4215,VALID,0,VALID,21.3468,VALID,16,VALID,0.456577,
2005-06-25, 12:14:00,VALID,918.315,VALID,0,VALID,92.5283,VALID,0,VALID,21.3468,VALID,16,VALID,0.18316,
2005-06-25, 12:15:00,VALID,918.34,VALID,0,VALID,92.5092,VALID,0,VALID,21.3304,VALID,16,VALID,0.571243,
2005-06-25, 12:16:00,VALID,918.375,VALID,0,VALID,92.4787,VALID,0,VALID,21.3242,VALID,24,VALID,0.709872,
2005-06-25, 12:17:00,VALID,918.397,VALID,0,VALID,92.4291,VALID,-0.0169808,VALID,21.3272,VALID,24,VALID,0.470022,
2005-06-25, 12:18:00,VALID,918.424,VALID,0,VALID,92.3833,VALID,0,VALID,21.3339,VALID,24,VALID,0.592076,
2005-06-25, 12:19:00,VALID,918.442,VALID,0,VALID,92.2384,VALID,0,VALID,21.3597,VALID,15,VALID,0.874273,
2005-06-25, 12:20:00,VALID,918.444,VALID,0,VALID,92.1621,VALID,0,VALID,21.3662,VALID,21,VALID,0.800114,
2005-06-25, 12:21:00,VALID,918.461,VALID,0,VALID,92.1239,VALID,0,VALID,21.3797,VALID,10,VALID,0.559048,
2005-06-25, 12:22:00,VALID,918.465,VALID,0,VALID,92.0756,VALID,0,VALID,21.3794,VALID,12,VALID,0.327734,
2005-06-25, 12:23:00,VALID,918.488,VALID,0,VALID,91.9319,VALID,0,VALID,21.3829,VALID,29,VALID,0.0635653,
2005-06-25, 12:24:00,VALID,918.501,VALID,0,VALID,92.0807,VALID,-0.0169808,VALID,21.4023,VALID,29,VALID,0.206209,
2005-06-25, 12:25:00,VALID,918.507,VALID,0,VALID,92.0298,VALID,0,VALID,21.4219,VALID,29,VALID,0.25093,
2005-06-25, 12:26:00,VALID,918.545,VALID,0,VALID,92.1201,VALID,0,VALID,21.4278,VALID,29,VALID,0.39043,
2005-06-25, 12:27:00,VALID,918.573,VALID,0,VALID,91.9434,VALID,0,VALID,21.4539,VALID,29,VALID,0.423399,
2005-06-25, 12:28:00,VALID,918.59,VALID,0,VALID,92.0171,VALID,0,VALID,21.4566,VALID,29,VALID,0.365141,
2005-06-25, 12:29:00,VALID,918.606,VALID,0,VALID,91.9713,VALID,0.0169808,VALID,21.4639,VALID,49,VALID,0.543423,
2005-06-25, 12:30:00,VALID,918.622,VALID,0,VALID,91.6064,VALID,0,VALID,21.4346,VALID,63,VALID,0.658346,
2005-06-25, 12:31:00,VALID,918.666,VALID,0,VALID,91.909,VALID,0,VALID,21.4146,VALID,64,VALID,0.598366,
2005-06-25, 12:32:00,VALID,918.685,VALID,0,VALID,92.2473,VALID,0,VALID,21.4087,VALID,64,VALID,0.670873,
2005-06-25, 12:33:00,VALID,918.707,VALID,0,VALID,92.3706,VALID,0,VALID,21.3794,VALID,56,VALID,0.630022,
2005-06-25, 12:34:00,VALID,918.729,VALID,0,VALID,92.5194,VALID,0.0169808,VALID,21.3662,VALID,50,VALID,0.299361,
2005-06-25, 12:35:00,VALID,918.743,VALID,0,VALID,92.5003,VALID,0.0169808,VALID,21.3597,VALID,50,VALID,0.376598,
2005-06-25, 12:36:00,VALID,918.724,VALID,0,VALID,92.5677,VALID,0,VALID,21.3474,VALID,50,VALID,0.439918,
2005-06-25, 12:37:00,VALID,918.713,VALID,0,VALID,92.5016,VALID,0,VALID,21.3463,VALID,50,VALID,0.725991,
2005-06-25, 12:38:00,VALID,918.726,VALID,0,VALID,92.4813,VALID,0.0169808,VALID,21.3436,VALID,44,VALID,0.698219,
2005-06-25, 12:39:00,VALID,918.734,VALID,0,VALID,92.494,VALID,0.0339617,VALID,21.3737,VALID,35,VALID,0.627287,
2005-06-25, 12:40:00,VALID,918.756,VALID,0,VALID,92.5436,VALID,0,VALID,21.3662,VALID,27,VALID,0.805859,
2005-06-25, 12:41:00,VALID,918.775,VALID,0,VALID,92.3503,VALID,0,VALID,21.3535,VALID,16,VALID,1.19873,
2005-06-25, 12:42:00,VALID,918.809,VALID,0,VALID,92.3388,VALID,0,VALID,21.3404,VALID,22,VALID,1.1854,
2005-06-25, 12:43:00,VALID,918.824,VALID,0,VALID,92.5194,VALID,0,VALID,21.328,VALID,22,VALID,1.02725,
2005-06-25, 12:44:00,VALID,918.843,VALID,0,VALID,92.4495,VALID,0,VALID,21.2986,VALID,28,VALID,1.13502,
2005-06-25, 12:45:00,VALID,918.868,VALID,0,VALID,92.6809,VALID,0,VALID,21.2855,VALID,12,VALID,0.717634,
2005-06-25, 12:46:00,VALID,918.883,VALID,0,VALID,92.6466,VALID,0,VALID,21.2863,VALID,2,VALID,0.76399,
2005-06-25, 12:47:00,VALID,918.883,VALID,0,VALID,92.7229,VALID,0,VALID,21.2696,VALID,346,VALID,0.829613,
2005-06-25, 12:48:00,VALID,918.889,VALID,0,VALID,92.6262,VALID,0.0169808,VALID,21.2405,VALID,345,VALID,0.712891,
2005-06-25, 12:49:00,VALID,918.901,VALID,0,VALID,92.7368,VALID,0,VALID,21.2408,VALID,345,VALID,0.5496,
2005-06-25, 12:50:00,VALID,918.903,VALID,0,VALID,92.6745,VALID,0.0169808,VALID,21.2413,VALID,345,VALID,1.08521,
2005-06-25, 12:51:00,VALID,918.924,VALID,0,VALID,92.8424,VALID,0,VALID,21.2152,VALID,341,VALID,0.650568,
2005-06-25, 12:52:00,VALID,918.926,VALID,0,VALID,92.9085,VALID,0,VALID,21.2252,VALID,324,VALID,0.475109,
2005-06-25, 12:53:00,VALID,918.923,VALID,0,VALID,92.8424,VALID,0,VALID,21.2316,VALID,319,VALID,0.440952,
2005-06-25, 12:54:00,VALID,918.933,VALID,0,VALID,92.8513,VALID,0.0169808,VALID,21.2308,VALID,322,VALID,0.294444,
2005-06-25, 12:55:00,VALID,918.932,VALID,0,VALID,92.9632,VALID,0,VALID,21.2505,VALID,355,VALID,0.529119,
2005-06-25, 12:56:00,VALID,918.93,VALID,0,VALID,92.6351,VALID,0.0169808,VALID,21.2575,VALID,7,VALID,1.08854,
2005-06-25, 12:57:00,VALID,918.938,VALID,0,VALID,92.4838,VALID,0,VALID,21.254,VALID,3,VALID,1.09527,
2005-06-25, 12:58:00,VALID,918.927,VALID,0,VALID,92.4177,VALID,0.0339617,VALID,21.2373,VALID,5,VALID,1.48633,
2005-06-25, 12:59:00,VALID,918.942,VALID,0,VALID,92.6339,VALID,0,VALID,21.2314,VALID,354,VALID,1.00667,
2005-06-25, 13:00:00,VALID,918.966,VALID,0,VALID,92.6631,VALID,0.0339617,VALID,21.2026,VALID,338,VALID,1.15225,
2005-06-25, 13:01:00,VALID,918.951,VALID,0,VALID,92.7241,VALID,0,VALID,21.1862,VALID,336,VALID,0.973785,
2005-06-25, 13:02:00,VALID,918.966,VALID,0,VALID,92.6516,VALID,0,VALID,21.1867,VALID,356,VALID,1.11204,
2005-06-25, 13:03:00,VALID,918.974,VALID,0,VALID,92.7737,VALID,0,VALID,21.1829,VALID,349,VALID,0.956745,
2005-06-25, 13:04:00,VALID,918.976,VALID,0,VALID,92.6275,VALID,0,VALID,21.167,VALID,344,VALID,1.65234,
2005-06-25, 13:05:00,VALID,918.979,VALID,0,VALID,92.714,VALID,0,VALID,21.1832,VALID,348,VALID,0.881925,
2005-06-25, 13:06:00,VALID,918.972,VALID,0,VALID,92.7496,VALID,0,VALID,21.1695,VALID,345,VALID,1.04897,
2005-06-25, 13:07:00,VALID,918.968,VALID,0,VALID,92.85,VALID,-0.0169808,VALID,21.1705,VALID,337,VALID,1.15072,
2005-06-25, 13:08:00,VALID,918.951,VALID,0,VALID,92.9034,VALID,0,VALID,21.1703,VALID,329,VALID,0.743963,
2005-06-25, 13:09:00,VALID,918.938,VALID,0,VALID,93.2277,VALID,0,VALID,21.1348,VALID,328,VALID,0.883903,
2005-06-25, 13:10:00,VALID,918.901,VALID,0,VALID,93.1234,VALID,0,VALID,21.1253,VALID,304,VALID,0.99272,
2005-06-25, 13:11:00,VALID,918.893,VALID,0,VALID,93.5965,VALID,0,VALID,21.1218,VALID,354,VALID,0.898615,
2005-06-25, 13:12:00,VALID,918.887,VALID,0,VALID,93.4718,VALID,-0.0169808,VALID,21.0995,VALID,331,VALID,1.14367,
2005-06-25, 13:13:00,VALID,918.891,VALID,0,VALID,93.6575,VALID,-0.0169808,VALID,21.1025,VALID,345,VALID,0.871271,
2005-06-25, 13:14:00,VALID,918.91,VALID,0,VALID,94.0326,VALID,-0.0339617,VALID,21.093,VALID,9,VALID,0.629514,
2005-06-25, 13:15:00,VALID,918.913,VALID,0,VALID,93.955,VALID,-0.0339617,VALID,21.0833,VALID,11,VALID,0.856585,
2005-06-25, 13:16:00,VALID,918.933,VALID,0,VALID,94.0809,VALID,-0.0169808,VALID,21.0839,VALID,19,VALID,0.89335,
2005-06-25, 13:17:00,VALID,918.946,VALID,0,VALID,93.6956,VALID,0,VALID,21.0637,VALID,5,VALID,1.06777,
2005-06-25, 13:18:00,VALID,918.973,VALID,0,VALID,93.9296,VALID,-0.0169808,VALID,21.0675,VALID,360,VALID,0.782118,
2005-06-25, 13:19:00,VALID,918.989,VALID,0,VALID,93.791,VALID,-0.0169808,VALID,21.0516,VALID,360,VALID,0.90811,
2005-06-25, 13:20:00,VALID,919.007,VALID,0,VALID,93.5074,VALID,-0.0339617,VALID,21.0252,VALID,19,VALID,1.08358,
2005-06-25, 13:21:00,VALID,919.027,VALID,0,VALID,93.0191,VALID,-0.0339617,VALID,21.0352,VALID,346,VALID,1.27871,
2005-06-25, 13:22:00,VALID,919.039,VALID,0,VALID,92.8513,VALID,0,VALID,21.0349,VALID,351,VALID,1.63181,
2005-06-25, 13:23:00,VALID,919.062,VALID,0,VALID,92.6809,VALID,-0.0169808,VALID,21.0476,VALID,348,VALID,1.43559,
2005-06-25, 13:24:00,VALID,919.076,VALID,0,VALID,92.4304,VALID,0,VALID,21.0801,VALID,301,VALID,1.56364,
2005-06-25, 13:25:00,VALID,919.103,VALID,0,VALID,92.2969,VALID,-0.0169808,VALID,21.1156,VALID,336,VALID,1.27153,
2005-06-25, 13:26:00,VALID,919.12,VALID,0,VALID,92.2193,VALID,-0.0169808,VALID,21.1156,VALID,313,VALID,0.990589,
2005-06-25, 13:27:00,VALID,919.149,VALID,0,VALID,91.9332,VALID,0,VALID,21.1353,VALID,6,VALID,0.918968,
2005-06-25, 13:28:00,VALID,919.172,VALID,0,VALID,91.9485,VALID,0,VALID,21.1641,VALID,337,VALID,0.683499,
2005-06-25, 13:29:00,VALID,919.206,VALID,0,VALID,92.054,VALID,0,VALID,21.1673,VALID,350,VALID,0.66875,
2005-06-25, 13:30:00,VALID,919.208,VALID,0,VALID,92.0565,VALID,0,VALID,21.1705,VALID,323,VALID,0.582485,
2005-06-25, 13:31:00,VALID,919.23,VALID,0,VALID,92.3223,VALID,0,VALID,21.17,VALID,337,VALID,0.443056,
2005-06-25, 13:32:00,VALID,919.242,VALID,0,VALID,92.7381,VALID,-0.0169808,VALID,21.1676,VALID,338,VALID,0.36319,
2005-06-25, 13:33:00,VALID,919.251,VALID,0,VALID,93.159,VALID,-0.0169808,VALID,21.1544,VALID,339,VALID,0.0897436,
2005-06-25, 13:34:00,VALID,919.29,VALID,0,VALID,93.4502,VALID,-0.0169808,VALID,21.1447,VALID,347,VALID,0.539063,
2005-06-25, 13:35:00,VALID,919.278,VALID,0,VALID,93.5863,VALID,0,VALID,21.1183,VALID,8,VALID,0.737537,
2005-06-25, 13:36:00,VALID,919.292,VALID,0,VALID,93.6702,VALID,0.0169808,VALID,21.0898,VALID,19,VALID,0.425305,
2005-06-25, 13:37:00,VALID,919.304,VALID,0,VALID,93.819,VALID,0.0169808,VALID,21.0607,VALID,19,VALID,0.212843,
2005-06-25, 13:38:00,VALID,919.302,VALID,0,VALID,93.955,VALID,0,VALID,21.0416,VALID,19,VALID,0.0916016,
2005-06-25, 13:39:00,VALID,919.293,VALID,0,VALID,93.8915,VALID,0,VALID,21.0161,VALID,19,VALID,0.765811,
2005-06-25, 13:40:00,VALID,919.293,VALID,0,VALID,93.8546,VALID,0,VALID,20.973,VALID,357,VALID,0.742914,
2005-06-25, 13:41:00,VALID,919.288,VALID,0,VALID,93.4935,VALID,0,VALID,20.9544,VALID,341,VALID,1.36364,
2005-06-25, 13:42:00,VALID,919.292,VALID,0,VALID,93.2824,VALID,-0.0169808,VALID,20.948,VALID,350,VALID,1.1088,
2005-06-25, 13:43:00,VALID,919.294,VALID,0,VALID,92.939,VALID,-0.0679233,VALID,20.9544,VALID,334,VALID,1.43192,
2005-06-25, 13:44:00,VALID,919.32,VALID,0,VALID,92.8589,VALID,0,VALID,20.9741,VALID,359,VALID,0.858333,
2005-06-25, 13:45:00,VALID,919.333,VALID,0,VALID,93.0153,VALID,-0.0339617,VALID,20.9808,VALID,359,VALID,0.624273,
2005-06-25, 13:46:00,VALID,919.327,VALID,0,VALID,92.9365,VALID,-0.0339617,VALID,20.9639,VALID,345,VALID,0.935268,
2005-06-25, 13:47:00,VALID,919.336,VALID,0,VALID,92.6046,VALID,0,VALID,20.9507,VALID,336,VALID,1.03716,
2005-06-25, 13:48:00,VALID,919.351,VALID,0,VALID,92.5919,VALID,0,VALID,20.9701,VALID,338,VALID,0.350818,
2005-06-25, 13:49:00,VALID,919.362,VALID,0,VALID,92.5105,VALID,-0.0169808,VALID,20.9768,VALID,345,VALID,0.391211,
2005-06-25, 13:50:00,VALID,919.379,VALID,0,VALID,92.4825,VALID,0,VALID,20.9701,VALID,4,VALID,0.410252,
2005-06-25, 13:51:00,VALID,919.399,VALID,0,VALID,92.5232,VALID,0,VALID,20.9606,VALID,332,VALID,0.655342,
2005-06-25, 13:52:00,VALID,919.421,VALID,0,VALID,92.513,VALID,-0.0169808,VALID,20.9674,VALID,309,VALID,0.501598,
2005-06-25, 13:53:00,VALID,919.431,VALID,0,VALID,92.3147,VALID,-0.0169808,VALID,20.9571,VALID,306,VALID,0.0587891,
2005-06-25, 13:54:00,VALID,919.441,VALID,0,VALID,92.2435,VALID,0,VALID,20.9674,VALID,307,VALID,0.297049,
2005-06-25, 13:55:00,VALID,919.44,VALID,0,VALID,92.0718,VALID,-0.0169808,VALID,20.9674,VALID,292,VALID,0.510671,